TimeCDT,TemperatureF,Dew PointF,Humidity,Sea Level PressureIn,VisibilityMPH,Wind Direction,Wind SpeedMPH,Gust SpeedMPH,PrecipitationIn,Events,Conditions,WindDirDegrees,DateUTC
12:15 AM,48.4,37.4,66,30.16,10.0,NNW,20.7,32.2,N/A,,Mostly Cloudy,340,2012-10-04 05:15:00
12:35 AM,47.1,37.9,70,30.17,10.0,NNW,15.0,21.9,N/A,,Light Drizzle,340,2012-10-04 05:35:00
12:55 AM,46.4,37.6,71,30.14,10.0,North,10.4,-,N/A,Thunderstorm,Thunderstorm,10,2012-10-04 05:55:00
1:15 AM,46.4,36.7,69,30.18,10.0,NNW,15.0,19.6,N/A,,Overcast,330,2012-10-04 06:15:00
1:35 AM,45.0,35.8,70,30.18,10.0,NNW,13.8,26.5,N/A,,Scattered Clouds,340,2012-10-04 06:35:00
1:55 AM,43.9,35.8,73,30.18,10.0,NNW,12.7,-,N/A,,Clear,340,2012-10-04 06:55:00
2:15 AM,43.9,35.1,71,30.18,10.0,NNW,11.5,-,N/A,,Clear,330,2012-10-04 07:15:00
2:35 AM,43.2,34.7,72,30.18,10.0,NNW,12.7,-,N/A,,Clear,340,2012-10-04 07:35:00
2:55 AM,43.0,33.8,70,30.18,10.0,NNW,16.1,-,N/A,,Clear,330,2012-10-04 07:55:00
3:15 AM,42.4,33.1,69,30.20,10.0,NNW,13.8,18.4,N/A,,Clear,330,2012-10-04 08:15:00
3:35 AM,43.2,32.5,66,30.21,10.0,NNW,15.0,19.6,N/A,,Clear,330,2012-10-04 08:35:00
3:55 AM,43.2,32.4,66,30.20,10.0,NNW,12.7,20.7,N/A,Thunderstorm,Clear,340,2012-10-04 08:55:00
4:15 AM,43.0,32.0,65,30.24,10.0,NNW,17.3,25.3,N/A,Thunderstorm,Clear,330,2012-10-04 09:15:00
4:35 AM,42.8,32.0,66,30.21,10.0,NNW,10.4,21.9,N/A,,Scattered Clouds,340,2012-10-04 09:35:00
4:55 AM,41.9,32.0,68,30.23,10.0,NNW,13.8,-,N/A,,Scattered Clouds,330,2012-10-04 09:55:00
5:15 AM,41.0,32.0,70,30.24,10.0,NNW,15.0,-,N/A,,Clear,330,2012-10-04 10:15:00
5:35 AM,42.3,32.2,67,30.24,10.0,NNW,19.6,24.2,N/A,,Scattered Clouds,330,2012-10-04 10:35:00
5:55 AM,41.9,32.0,68,30.25,10.0,NNW,15.0,20.7,N/A,,Clear,330,2012-10-04 10:55:00
6:15 AM,40.6,32.0,71,30.25,10.0,NNW,13.8,-,N/A,,Clear,330,2012-10-04 11:15:00
6:35 AM,41.0,31.6,69,30.26,10.0,NNW,12.7,-,N/A,,Scattered Clouds,330,2012-10-04 11:35:00
6:55 AM,41.0,31.6,69,30.27,10.0,NNW,16.1,24.2,N/A,,Mostly Cloudy,330,2012-10-04 11:55:00
7:15 AM,41.0,31.8,70,30.28,10.0,NNW,16.1,20.7,N/A,,Overcast,330,2012-10-04 12:15:00
7:35 AM,40.5,31.8,71,30.29,10.0,NNW,16.1,19.6,N/A,,Overcast,330,2012-10-04 12:35:00
7:55 AM,39.4,31.6,74,30.30,10.0,NNW,13.8,-,N/A,,Mostly Cloudy,330,2012-10-04 12:55:00
8:15 AM,39.7,31.8,73,30.31,10.0,NNW,16.1,-,N/A,,Scattered Clouds,330,2012-10-04 13:15:00
8:35 AM,39.7,31.5,72,30.31,10.0,NNW,13.8,-,N/A,,Clear,330,2012-10-04 13:35:00
8:55 AM,40.5,32.0,72,30.31,10.0,NNW,15.0,-,N/A,,Clear,330,2012-10-04 13:55:00
9:15 AM,41.9,31.6,67,30.32,10.0,NNW,19.6,25.3,N/A,,Clear,330,2012-10-04 14:15:00
9:35 AM,42.8,31.1,63,30.33,10.0,NNW,18.4,27.6,N/A,,Clear,340,2012-10-04 14:35:00
9:55 AM,43.3,31.5,63,30.33,10.0,NNW,19.6,25.3,N/A,,Clear,340,2012-10-04 14:55:00
10:15 AM,43.9,31.1,61,30.33,10.0,NNW,20.7,27.6,N/A,,Clear,340,2012-10-04 15:15:00
10:35 AM,45.3,31.1,58,30.34,10.0,North,21.9,27.6,N/A,,Scattered Clouds,350,2012-10-04 15:35:00
10:55 AM,45.7,31.6,58,30.34,10.0,NNW,18.4,27.6,N/A,,Scattered Clouds,340,2012-10-04 15:55:00
11:15 AM,46.2,30.9,55,30.35,10.0,North,15.0,26.5,N/A,,Scattered Clouds,350,2012-10-04 16:15:00
11:35 AM,47.5,30.4,52,30.34,10.0,NNW,13.8,26.5,N/A,,Clear,340,2012-10-04 16:35:00
11:55 AM,48.6,29.8,48,30.34,10.0,North,13.8,24.2,N/A,,Clear,10,2012-10-04 16:55:00
12:15 PM,49.6,30.2,47,30.34,10.0,NNW,12.7,19.6,N/A,,Clear,340,2012-10-04 17:15:00
12:35 PM,50.9,29.3,43,30.34,10.0,North,12.7,21.9,N/A,,Clear,350,2012-10-04 17:35:00
12:55 PM,50.9,28.9,43,30.34,10.0,NNW,15.0,25.3,N/A,,Clear,330,2012-10-04 17:55:00
1:35 PM,52.3,28.6,40,30.32,10.0,North,10.4,18.4,N/A,,Clear,360,2012-10-04 18:35:00
1:55 PM,52.7,28.8,40,30.31,10.0,NNW,10.4,18.4,N/A,,Clear,340,2012-10-04 18:55:00
2:15 PM,52.9,27.5,38,30.31,10.0,North,11.5,17.3,N/A,,Clear,360,2012-10-04 19:15:00
2:35 PM,53.8,28.0,37,30.31,10.0,North,13.8,19.6,N/A,,Clear,350,2012-10-04 19:35:00
2:55 PM,53.8,27.7,37,30.30,10.0,North,4.6,18.4,N/A,,Clear,10,2012-10-04 19:55:00
3:15 PM,54.3,27.7,36,30.29,10.0,North,9.2,-,N/A,,Clear,360,2012-10-04 20:15:00
3:35 PM,54.0,27.7,36,30.28,10.0,North,9.2,16.1,N/A,,Clear,360,2012-10-04 20:35:00
3:55 PM,54.3,27.3,35,30.28,10.0,North,10.4,19.6,N/A,,Clear,360,2012-10-04 20:55:00
4:15 PM,54.5,27.7,36,30.28,10.0,North,9.2,-,N/A,,Clear,360,2012-10-04 21:15:00
4:35 PM,54.7,27.3,35,30.27,10.0,NNW,10.4,-,N/A,,Clear,340,2012-10-04 21:35:00
4:55 PM,54.7,27.9,36,30.27,10.0,NNE,10.4,-,N/A,,Clear,20,2012-10-04 21:55:00
5:15 PM,54.1,27.9,36,30.27,10.0,North,8.1,-,N/A,,Clear,10,2012-10-04 22:15:00
5:35 PM,53.6,28.0,37,30.27,10.0,NNE,10.4,16.1,N/A,,Clear,30,2012-10-04 22:35:00
5:55 PM,52.9,27.3,37,30.28,10.0,North,10.4,-,N/A,,Clear,10,2012-10-04 22:55:00
6:15 PM,52.2,27.0,38,30.27,10.0,North,8.1,-,N/A,,Clear,10,2012-10-04 23:15:00
6:35 PM,51.3,27.1,39,30.27,10.0,NNE,6.9,-,N/A,,Clear,20,2012-10-04 23:35:00
6:55 PM,49.8,27.5,42,30.28,10.0,NNE,5.8,-,N/A,,Clear,20,2012-10-04 23:55:00
7:15 PM,48.0,28.2,46,30.29,10.0,NNE,5.8,-,N/A,,Clear,30,2012-10-05 00:15:00
7:35 PM,46.8,28.6,49,30.30,10.0,NNE,5.8,-,N/A,,Clear,20,2012-10-05 00:35:00
7:55 PM,46.6,28.8,50,30.31,10.0,North,5.8,-,N/A,,Clear,10,2012-10-05 00:55:00
8:15 PM,46.8,28.9,50,30.30,10.0,NNE,4.6,-,N/A,,Scattered Clouds,30,2012-10-05 01:15:00
8:35 PM,46.8,28.6,49,30.31,10.0,North,6.9,-,N/A,,Scattered Clouds,10,2012-10-05 01:35:00
8:55 PM,44.6,28.4,53,30.32,10.0,NNE,6.9,-,N/A,,Scattered Clouds,20,2012-10-05 01:55:00
9:15 PM,43.3,27.9,54,30.33,10.0,NNE,6.9,-,N/A,,Clear,20,2012-10-05 02:15:00
9:35 PM,41.2,28.2,60,30.33,10.0,NNE,5.8,-,N/A,,Clear,20,2012-10-05 02:35:00
9:55 PM,40.3,27.5,60,30.34,10.0,NNE,6.9,-,N/A,,Clear,20,2012-10-05 02:55:00
10:15 PM,40.1,28.0,62,30.34,10.0,NNE,8.1,-,N/A,,Clear,20,2012-10-05 03:15:00
10:35 PM,38.8,28.2,66,30.34,10.0,NNE,5.8,-,N/A,,Clear,20,2012-10-05 03:35:00
10:55 PM,38.3,28.2,67,30.34,10.0,North,5.8,-,N/A,,Clear,10,2012-10-05 03:55:00
11:15 PM,37.6,28.2,69,30.35,10.0,North,4.6,-,N/A,,Clear,10,2012-10-05 04:15:00
11:35 PM,37.0,28.0,70,30.34,10.0,NNE,6.9,-,N/A,,Clear,20,2012-10-05 04:35:00
11:55 PM,36.5,27.5,70,30.34,10.0,NNE,5.8,-,N/A,,Clear,20,2012-10-05 04:55:00